FW2547 Weather Reports


Display with metric or nautical units.
time (UTC)temp
F
wind
direction
speed
MPH
gust
MPH
rain 1hr
in
rain 24hr
in
rain mn
in
humidity
%
barometer
mb
20201101020023 69 360 0.0 2.0 0.00 0.00 0.00 34 1017.9
20201101014555 70 360 0.0 2.0 0.00 0.00 0.00 33 1017.5
20201101013030 71 26 0.0 0.0 0.00 0.00 0.00 30 1017.4
20201101011528 72 28 0.0 0.0 0.00 0.00 0.00 28 1017.2
20201101010123 72 24 0.0 0.0 0.00 0.00 0.00 27 1017.2
20201101004617 72 25 1.0 3.0 0.00 0.00 0.00 27 1017.0
20201101003037 73 351 0.0 0.0 0.00 0.00 0.00 27 1016.7
20201101001601 74 351 0.0 4.0 0.00 0.00 0.00 26 1016.8
20201101000050 74 355 4.0 9.0 0.00 0.00 0.00 26 1016.6
20201031234601 74 351 7.0 9.0 0.00 0.00 0.00 25 1016.4
20201031233038 75 360 7.0 10.0 0.00 0.00 0.00 24 1016.3
20201031231559 75 360 2.0 4.0 0.00 0.00 0.00 22 1016.2
20201031230048 76 360 3.0 5.0 0.00 0.00 0.00 21 1016.1
20201031224547 76 360 2.0 6.0 0.00 0.00 0.00 22 1016.1
20201031223036 76 360 3.0 8.0 0.00 0.00 0.00 22 1015.9
20201031221609 76 360 3.0 9.0 0.00 0.00 0.00 21 1015.8
20201031220117 76 360 1.0 5.0 0.00 0.00 0.00 21 1015.8
20201031214534 76 219 0.0 6.0 0.00 0.00 0.00 22 1015.8
20201031213105 76 360 0.0 5.0 0.00 0.00 0.00 22 1015.9
20201031211520 76 193 2.0 6.0 0.00 0.00 0.00 22 1015.8
20201031210019 74 360 2.0 8.0 0.00 0.00 0.00 24 1016.0
20201031204544 74 360 7.0 10.0 0.00 0.00 0.00 23 1016.1
20201031203029 74 360 1.0 7.0 0.00 0.00 0.00 25 1016.3
20201031201529 74 360 1.0 4.0 0.00 0.00 0.00 25 1016.3
20201031200210 73 187 1.0 5.0 0.00 0.00 0.00 27 1016.5
20201031194828 72 171 2.0 9.0 0.00 0.00 0.00 29 1016.7
20201031191725 71 188 0.0 5.0 0.00 0.00 0.00 30 1017.3
20201031190318 70 201 0.0 2.0 0.00 0.00 0.00 32 1017.5
20201031184735 68 202 0.0 1.0 0.00 0.00 0.00 33 1017.8
20201031183144 67 202 0.0 3.0 0.00 0.00 0.00 36 1018.1
20201031181710 66 216 0.0 2.0 0.00 0.00 0.00 37 1018.3
20201031180121 64 216 0.0 1.0 0.00 0.00 0.00 38 1018.4
20201031174655 63 216 0.0 1.0 0.00 0.00 0.00 41 1018.4
20201031173123 61 217 0.0 1.0 0.00 0.00 0.00 45 1018.4
20201031171536 60 216 0.0 1.0 0.00 0.00 0.00 47 1018.8
20201031170121 60 216 0.0 2.0 0.00 0.00 0.00 48 1018.8
20201031164533 60 230 0.0 1.0 0.00 0.00 0.00 49 1018.7
20201031163037 59 230 0.0 0.0 0.00 0.00 0.00 51 1018.8
20201031161524 57 360 0.0 0.0 0.00 0.00 0.00 54 1018.9
20201031160036 56 360 0.0 1.0 0.00 0.00 0.00 56 1018.8
20201031154556 55 229 0.0 1.0 0.00 0.00 0.00 58 1018.9
20201031153035 53 234 0.0 0.0 0.00 0.00 0.00 61 1018.6
20201031151517 52 230 0.0 1.0 0.00 0.00 0.00 62 1018.6
20201031150025 51 231 0.0 1.0 0.00 0.00 0.00 65 1018.6
20201031144914 51 360 0.0 0.0 0.00 0.00 0.00 66 1018.4
20201031143140 50 231 0.0 0.0 0.00 0.00 0.00 68 1018.2
20201031141629 49 229 0.0 0.0 0.00 0.00 0.00 69 1017.9
20201031140154 49 229 0.0 1.0 0.00 0.00 0.00 69 1017.8
20201031134634 49 360 0.0 0.0 0.00 0.00 0.00 69 1017.5
20201031133116 49 230 0.0 0.0 0.00 0.00 0.00 69 1017.4
20201031131617 49 360 0.0 0.0 0.00 0.00 0.00 69 1017.1
20201031130135 49 360 0.0 0.0 0.00 0.00 0.00 68 1017.0
20201031124615 49 230 0.0 1.0 0.00 0.00 0.00 67 1016.8
20201031123133 49 360 0.0 1.0 0.00 0.00 0.00 66 1016.8
20201031121646 50 360 0.0 1.0 0.00 0.00 0.00 66 1016.7
20201031120055 50 360 0.0 0.0 0.00 0.00 0.00 65 1016.5
20201031114549 50 360 0.0 0.0 0.00 0.00 0.00 65 1016.2
20201031113054 50 360 0.0 1.0 0.00 0.00 0.00 64 1016.0
20201031111657 50 360 0.0 1.0 0.00 0.00 0.00 64 1016.0
20201031110118 50 360 0.0 0.0 0.00 0.00 0.00 63 1015.8
20201031104534 51 360 0.0 1.0 0.00 0.00 0.00 62 1015.6
20201031103051 51 360 0.0 0.0 0.00 0.00 0.00 63 1015.6
20201031101538 51 360 0.0 0.0 0.00 0.00 0.00 63 1015.7
20201031100254 51 360 0.0 0.0 0.00 0.00 0.00 61 1015.8
20201031094543 51 360 0.0 0.0 0.00 0.00 0.00 60 1015.6
20201031093028 52 360 0.0 0.0 0.00 0.00 0.00 58 1015.5
20201031091558 52 360 0.0 4.0 0.00 0.00 0.00 57 1015.4
20201031090034 53 360 0.0 0.0 0.00 0.00 0.00 56 1015.5
20201031084525 53 360 0.0 0.0 0.00 0.00 0.00 56 1015.6
20201031083024 53 360 0.0 2.0 0.00 0.00 0.00 55 1015.4
20201031081528 54 360 0.0 1.0 0.00 0.00 0.00 55 1015.5
20201031080019 54 360 0.0 0.0 0.00 0.00 0.00 55 1015.5
20201031074519 55 360 0.0 0.0 0.00 0.00 0.00 54 1015.5
20201031073203 55 360 0.0 0.0 0.00 0.00 0.00 52 1015.5
20201031071740 56 360 0.0 0.0 0.00 0.00 0.00 50 1015.5
20201031070323 56 360 0.0 0.0 0.00 0.00 0.00 50 1015.4
20201031063115 57 360 0.0 0.0 0.00 0.00 0.00 47 1015.6
20201031061747 57 360 0.0 1.0 0.00 0.00 0.00 45 1015.6
20201031060128 58 360 0.0 2.0 0.00 0.00 0.00 44 1015.6
20201031054627 59 360 0.0 4.0 0.00 0.00 0.00 41 1015.7
20201031051633 59 360 0.0 3.0 0.00 0.00 0.00 42 1016.0
20201031050201 59 28 0.0 1.0 0.00 0.00 0.00 43 1016.3
20201031044557 60 360 0.0 3.0 0.00 0.00 0.00 41 1016.3
20201031043116 60 360 1.0 6.0 0.00 0.00 0.00 42 1016.3
20201031041604 60 360 0.0 2.0 0.00 0.00 0.00 44 1016.1
20201031040127 60 360 0.0 0.0 0.00 0.00 0.00 42 1016.0
20201031034637 61 360 1.0 4.0 0.00 0.00 0.00 42 1015.9
20201031033136 61 360 0.0 1.0 0.00 0.00 0.00 40 1015.6
20201031031637 62 360 0.0 1.0 0.00 0.00 0.00 40 1015.3
20201031030215 62 360 0.0 1.0 0.00 0.00 0.00 39 1015.4
20201031024643 63 360 0.0 2.0 0.00 0.00 0.00 37 1015.4
20201031023235 64 360 0.0 0.0 0.00 0.00 0.00 36 1015.4
20201031021641 65 360 0.0 2.0 0.00 0.00 0.00 33 1015.5